Starlink 36149

operational
NORAD ID: 66969 Int'l Des: 2025-288 Owner: SPXS Country: US Constellation: starlink
LEOCIRCULAR

Starlink 36149について

説明を読み込み中...

リアルタイム位置

3D地球を読み込み中...

次回通過

高度履歴

Altitude vs Time

uPlot chart will show altitude changes over time

軌道要素

1 66969C 25288L 25346.10743056 -.01066200 00000+0 -18462-2 0 3462
2 66969 43.0037 171.7836 0001855 271.0740 177.9518 16.02344700 14
Epoch: Dec 12, 2025 • Age: 57 hours

現在のステータス

高度 283.1 km
速度 7.74 km/s
衛星直下点 -15.28°S, 136.42°E
打ち上げ日 Dec 8, 2025
運用期間 5 days
タイプ internet

技術仕様

分類 Payload
質量 575.00 kg
乾燥質量 530.00 kg
総質量 575.00 kg
長さ 0.30 m
直径 4.10 m
スパン 29.00 m
形状 Box + pan
製造者 SPXS
バスタイプ Starlink V2MO
フェーズステータス In Orbit
所有者/国 SPXS/US

大規模コンステレーション

Loading constellations...